• In Hungary
  • List of Countries
  • For 7 days
  • Water Temperature
  • Satellite Maps
  • Weather Map
  • News
  • Weather Widgets
  • user-avatar
    Login

    Hourly Weather Mamaaul

    Today, 19 September, Wednesday

    Time Temperature Precipitation Wind Pressure Humidity
    00:00 +15°C° 0 mm 2 mps 721 mmHg 81%
    01:00 +15°C° 0 mm 2 mps 721 mmHg 80%
    02:00 +15°C° 0 mm 2 mps 720 mmHg 79%
    03:00 +15°C° 0 mm 2 mps 720 mmHg 79%
    04:00 +15°C° 0 mm 2 mps 720 mmHg 78%
    05:00 +15°C° 0 mm 2 mps 720 mmHg 76%
    06:00 +15°C° 0 mm 2 mps 721 mmHg 75%
    07:00 +17°C° 0 mm 2 mps 721 mmHg 68%
    08:00 +19°C° 0 mm 2 mps 721 mmHg 60%
    09:00 +21°C° 0 mm 2 mps 721 mmHg 53%
    10:00 +23°C° 0 mm 2 mps 721 mmHg 51%
    11:00 +22°C° 0 mm 3 mps 721 mmHg 50%
    12:00 +24°C° 0 mm 3 mps 721 mmHg 48%
    13:00 +24°C° 0 mm 3 mps 721 mmHg 49%
    14:00 +22°C° 0 mm 3 mps 720 mmHg 51%
    15:00 +23°C° 0 mm 2 mps 720 mmHg 52%
    16:00 +21°C° 0 mm 2 mps 720 mmHg 56%
    17:00 +19°C° 0 mm 2 mps 720 mmHg 60%
    18:00 +17°C° 0 mm 2 mps 720 mmHg 65%
    19:00 +17°C° 0 mm 2 mps 720 mmHg 65%
    20:00 +17°C° 0 mm 2 mps 721 mmHg 66%
    21:00 +16°C° 0 mm 3 mps 721 mmHg 67%
    22:00 +16°C° 0 mm 3 mps 721 mmHg 68%
    23:00 +16°C° 0 mm 3 mps 721 mmHg 68%

    Tomorrow, 20 September, Thursday

    Time Temperature Precipitation Wind Pressure Humidity
    00:00 +16°C° 0 mm 3 mps 721 mmHg 68%
    01:00 +14°C° 0 mm 3 mps 721 mmHg 68%
    02:00 +14°C° 0 mm 3 mps 721 mmHg 67%
    03:00 +14°C° 0 mm 3 mps 721 mmHg 66%
    04:00 +14°C° 0 mm 3 mps 721 mmHg 64%
    05:00 +14°C° 0 mm 3 mps 721 mmHg 62%
    06:00 +14°C° 0 mm 3 mps 721 mmHg 60%
    07:00 +17°C° 0 mm 3 mps 722 mmHg 55%
    08:00 +19°C° 0 mm 2 mps 722 mmHg 49%
    09:00 +23°C° 0 mm 2 mps 722 mmHg 44%
    10:00 +22°C° 0 mm 3 mps 722 mmHg 43%
    11:00 +24°C° 0 mm 3 mps 722 mmHg 43%
    12:00 +25°C° 0 mm 3 mps 722 mmHg 42%
    13:00 +25°C° 0 mm 3 mps 722 mmHg 44%
    14:00 +25°C° 0 mm 3 mps 721 mmHg 46%
    15:00 +24°C° 0 mm 3 mps 721 mmHg 48%
    16:00 +21°C° 0 mm 2 mps 721 mmHg 57%
    17:00 +20°C° 0 mm 2 mps 721 mmHg 65%
    18:00 +18°C° 0 mm 2 mps 721 mmHg 73%
    19:00 +17°C° 0 mm 2 mps 721 mmHg 72%
    20:00 +17°C° 0 mm 2 mps 721 mmHg 72%
    21:00 +17°C° 0 mm 2 mps 721 mmHg 72%
    22:00 +17°C° 0 mm 2 mps 721 mmHg 71%
    23:00 +17°C° 0 mm 2 mps 721 mmHg 70%

    Day after tomorrow, 21 September, Friday

    Time Temperature Precipitation Wind Pressure Humidity
    00:00 +17°C° 0 mm 2 mps 721 mmHg 69%
    01:00 +17°C° 0 mm 2 mps 720 mmHg 68%
    02:00 +17°C° 0 mm 2 mps 720 mmHg 67%
    03:00 +16°C° 0 mm 2 mps 720 mmHg 67%
    04:00 +16°C° 0 mm 2 mps 720 mmHg 66%
    05:00 +16°C° 0 mm 2 mps 720 mmHg 65%
    06:00 +16°C° 0 mm 2 mps 720 mmHg 64%
    07:00 +19°C° 0 mm 2 mps 720 mmHg 58%
    08:00 +21°C° 0 mm 2 mps 721 mmHg 51%
    09:00 +25°C° 0 mm 2 mps 721 mmHg 45%
    10:00 +25°C° 0 mm 2 mps 721 mmHg 44%
    11:00 +26°C° 0 mm 3 mps 721 mmHg 43%
    12:00 +27°C° 0 mm 4 mps 720 mmHg 42%
    13:00 +26°C° 0 mm 3 mps 720 mmHg 46%
    14:00 +26°C° 0 mm 3 mps 720 mmHg 49%
    15:00 +26°C° 0 mm 3 mps 720 mmHg 52%
    16:00 +24°C° 0 mm 2 mps 720 mmHg 62%
    17:00 +21°C° 0 mm 2 mps 720 mmHg 71%
    18:00 +20°C° 0 mm 1 mps 720 mmHg 81%
    19:00 +20°C° 0 mm 1 mps 720 mmHg 80%
    20:00 +19°C° 0 mm 1 mps 721 mmHg 80%
    21:00 +19°C° 0 mm 1 mps 721 mmHg 80%
    22:00 +19°C° 0 mm 1 mps 721 mmHg 79%
    23:00 +19°C° 0 mm 1 mps 721 mmHg 79%

    22 September, Saturday

    Time Temperature Precipitation Wind Pressure Humidity
    00:00 +19°C° 0 mm 1 mps 721 mmHg 78%
    01:00 +19°C° 0 mm 1 mps 721 mmHg 77%
    02:00 +19°C° 0 mm 1 mps 720 mmHg 77%
    03:00 +18°C° 0 mm 1 mps 720 mmHg 76%
    04:00 +18°C° 0 mm 1 mps 721 mmHg 75%
    05:00 +18°C° 0 mm 1 mps 721 mmHg 74%
    06:00 +18°C° 0 mm 1 mps 721 mmHg 73%
    07:00 +21°C° 0 mm 1 mps 721 mmHg 67%
    08:00 +23°C° 0 mm 2 mps 721 mmHg 61%
    09:00 +25°C° 0 mm 2 mps 721 mmHg 55%
    10:00 +26°C° 0 mm 2 mps 721 mmHg 54%
    11:00 +26°C° 0 mm 3 mps 721 mmHg 53%
    12:00 +27°C° 0 mm 4 mps 721 mmHg 53%
    13:00 +26°C° 0.2 mm 4 mps 721 mmHg 56%
    14:00 +26°C° 0.2 mm 4 mps 720 mmHg 59%
    15:00 +25°C° 0.2 mm 4 mps 720 mmHg 63%
    16:00 +23°C° 0.2 mm 4 mps 720 mmHg 71%
    17:00 +21°C° 0.2 mm 4 mps 720 mmHg 79%
    18:00 +20°C° 0.2 mm 3 mps 720 mmHg 88%
    19:00 +20°C° 0 mm 3 mps 720 mmHg 88%
    20:00 +20°C° 0 mm 3 mps 721 mmHg 88%
    21:00 +19°C° 0 mm 3 mps 721 mmHg 88%
    22:00 +19°C° 0 mm 3 mps 721 mmHg 87%
    23:00 +19°C° 0 mm 3 mps 720 mmHg 86%

    23 September, Sunday

    Time Temperature Precipitation Wind Pressure Humidity
    00:00 +18°C° 0 mm 3 mps 720 mmHg 85%
    01:00 +18°C° 0 mm 3 mps 720 mmHg 84%
    02:00 +18°C° 0 mm 3 mps 720 mmHg 83%
    03:00 +18°C° 0 mm 3 mps 719 mmHg 82%
    04:00 +18°C° 0 mm 3 mps 719 mmHg 81%
    05:00 +18°C° 0 mm 3 mps 719 mmHg 79%
    06:00 +18°C° 0 mm 3 mps 719 mmHg 78%
    07:00 +20°C° 0 mm 3 mps 719 mmHg 71%
    08:00 +22°C° 0 mm 4 mps 719 mmHg 63%
    09:00 +25°C° 0 mm 4 mps 719 mmHg 55%
    10:00 +26°C° 0 mm 4 mps 719 mmHg 53%
    11:00 +27°C° 0 mm 5 mps 719 mmHg 51%
    12:00 +28°C° 0 mm 5 mps 719 mmHg 49%
    13:00 +27°C° 0 mm 5 mps 718 mmHg 50%
    14:00 +27°C° 0 mm 5 mps 718 mmHg 51%
    15:00 +27°C° 0 mm 5 mps 717 mmHg 53%
    16:00 +25°C° 0.2 mm 4 mps 717 mmHg 60%
    17:00 +22°C° 0.2 mm 4 mps 717 mmHg 67%
    18:00 +20°C° 0.2 mm 3 mps 717 mmHg 74%
    19:00 +20°C° 0.1 mm 3 mps 717 mmHg 72%
    20:00 +20°C° 0.1 mm 3 mps 717 mmHg 70%
    21:00 +20°C° 0.1 mm 3 mps 717 mmHg 68%
    22:00 +20°C° 0 mm 3 mps 717 mmHg 65%
    23:00 +20°C° 0 mm 3 mps 716 mmHg 62%

    24 September, Monday

    Time Temperature Precipitation Wind Pressure Humidity
    00:00 +20°C° 0 mm 3 mps 716 mmHg 60%
    01:00 +20°C° 0 mm 3 mps 716 mmHg 58%
    02:00 +20°C° 0 mm 3 mps 716 mmHg 56%
    03:00 +20°C° 0 mm 3 mps 715 mmHg 55%
    04:00 +20°C° 0.4 mm 2 mps 715 mmHg 55%
    05:00 +20°C° 0.4 mm 2 mps 715 mmHg 55%
    06:00 +20°C° 0.4 mm 2 mps 716 mmHg 55%
    07:00 +21°C° 0.4 mm 2 mps 716 mmHg 53%
    08:00 +23°C° 0.4 mm 2 mps 716 mmHg 51%
    09:00 +24°C° 0.4 mm 2 mps 716 mmHg 49%
    10:00 +25°C° 0.1 mm 2 mps 716 mmHg 49%
    11:00 +26°C° 0.1 mm 3 mps 716 mmHg 48%
    12:00 +27°C° 0.1 mm 4 mps 716 mmHg 48%
    13:00 +27°C° 0.1 mm 4 mps 716 mmHg 51%
    14:00 +26°C° 0.1 mm 4 mps 715 mmHg 54%
    15:00 +26°C° 0.1 mm 4 mps 715 mmHg 56%
    16:00 +23°C° 0.2 mm 4 mps 715 mmHg 64%
    17:00 +22°C° 0.2 mm 3 mps 715 mmHg 72%
    18:00 +20°C° 0.2 mm 3 mps 715 mmHg 80%
    19:00 +20°C° 0 mm 3 mps 715 mmHg 77%
    20:00 +19°C° 0 mm 3 mps 715 mmHg 75%
    21:00 +19°C° 0 mm 3 mps 715 mmHg 73%
    22:00 +19°C° 0 mm 3 mps 715 mmHg 70%
    23:00 +19°C° 0 mm 2 mps 715 mmHg 67%
    Show more